Spirit of St Louis, MO

1:02 AM CDT on June 22, 2018 (GMT -0500)
Spirit Of Saint Louis

Weather History for KSUS - June, 2018

Change the Weather History Date:

Thursday, June 14, 2018

  Actual Average Record
Temperature  
Mean Temperature 78 °F -  
Max Temperature 93 °F 80 °F 93 °F (2016)
Min Temperature 64 °F 60 °F 48 °F (2014)
Cooling Degree Days 12    
Growing Degree Days 28 (Base 50)    
Moisture  
Dew Point 66 °F    
Average Humidity 74    
Maximum Humidity 93    
Minimum Humidity 48    
Precipitation  
Precipitation 0.42 in - - ()
Sea Level Pressure  
Sea Level Pressure 29.97 in    
Wind  
Wind Speed 5 mph (SSE)    
Max Wind Speed 23 mph    
Max Gust Speed 40 mph    
Visibility 9 miles    
Events Rain , Thunderstorm    
Averages and records for this station are not official NWS values.
T = Trace of Precipitation, MM = Missing Value Source: NWS Daily Summary

Daily Weather History Graph

Daily Weather History Graph

Search for Another Location

Airport or City:

Astronomy

Jun. 14, 2018 Rise Set
Actual Time 5:37 AM CDT 8:28 PM CDT
Civil Twilight 5:05 AM CDT 9:00 PM CDT
Nautical Twilight 4:25 AM CDT 9:40 PM CDT
Astronomical Twilight 3:39 AM CDT 10:26 PM CDT
Moon 6:34 AM CDT (6/14) 9:29 PM CDT (6/14)
Length of Visible Light 15h 54m
Length of Day
14h 51m
New Moon, 1% of the Moon is Illuminated
Jun 14
New Moon
Jun 20
First Quarter
Jun 27
Full
Jul 6
Last Quarter
Jul 12
New

Hourly Weather History & Observations

Time (CDT) Temp. Heat Index Dew Point Humidity Pressure Visibility Wind Dir Wind Speed Gust Speed Precip Events Conditions
12:54 AM 68.0 °F - 62.1 °F 81% 30.01 in 10.0 mi Calm Calm - N/A   Clear
1:54 AM 68.0 °F - 62.1 °F 81% 30.00 in 10.0 mi Calm Calm - N/A   Clear
2:54 AM 66.0 °F - 63.0 °F 90% 30.00 in 10.0 mi Calm Calm - N/A   Clear
3:54 AM 64.0 °F - 62.1 °F 93% 30.00 in 10.0 mi WSW 4.6 mph - N/A   Clear
4:54 AM 64.9 °F - 63.0 °F 93% 30.00 in 10.0 mi Calm Calm - N/A   Clear
5:54 AM 64.9 °F - 63.0 °F 93% 30.00 in 10.0 mi Calm Calm - N/A   Overcast
6:54 AM 69.1 °F - 64.9 °F 87% 30.01 in 10.0 mi Calm Calm - N/A   Mostly Cloudy
7:54 AM 75.0 °F - 62.1 °F 64% 30.01 in 10.0 mi Variable 4.6 mph - N/A   Clear
8:54 AM 78.1 °F - 61.0 °F 56% 30.02 in 10.0 mi ESE 5.8 mph - N/A   Clear
9:54 AM 80.1 °F 81.1 °F 61.0 °F 52% 30.02 in 10.0 mi SE 8.1 mph - N/A   Clear
10:54 AM 84.0 °F 85.4 °F 64.0 °F 51% 30.01 in 10.0 mi Variable 5.8 mph - N/A   Mostly Cloudy
11:54 AM 87.1 °F 90.6 °F 68.0 °F 53% 30.00 in 10.0 mi Variable 3.5 mph - N/A   Mostly Cloudy
12:54 PM 89.1 °F 94.1 °F 70.0 °F 53% 29.99 in 10.0 mi Variable 4.6 mph - N/A   Mostly Cloudy
1:54 PM 90.0 °F 94.5 °F 69.1 °F 50% 29.97 in 10.0 mi South 5.8 mph - N/A   Mostly Cloudy
2:54 PM 91.9 °F 97.4 °F 70.0 °F 48% 29.95 in 10.0 mi Calm Calm - N/A   Clear
3:54 PM 91.0 °F 96.6 °F 70.0 °F 50% 29.96 in 10.0 mi ESE 4.6 mph - N/A   Scattered Clouds
4:54 PM 81.0 °F 82.2 °F 63.0 °F 54% 29.97 in 10.0 mi NE 23.0 mph 40.3 mph N/A Thunderstorm Mostly Cloudy
5:17 PM 78.1 °F - 66.0 °F 66% 30.00 in 7.0 mi NE 19.6 mph 34.5 mph 0.06 in Rain , Thunderstorm Light Thunderstorms and Rain
5:23 PM 75.0 °F - 66.9 °F 76% 30.01 in 1.8 mi NNE 16.1 mph 32.2 mph 0.20 in Rain , Thunderstorm Heavy Thunderstorms and Rain
5:32 PM 73.9 °F - 68.0 °F 82% 30.03 in 2.0 mi NW 18.4 mph 26.5 mph 0.32 in Rain , Thunderstorm Heavy Thunderstorms and Rain
5:45 PM 73.0 °F - 66.9 °F 81% 29.99 in 4.0 mi ENE 11.5 mph 26.5 mph 0.40 in Rain , Thunderstorm Thunderstorms and Rain
5:54 PM 72.0 °F - 68.0 °F 87% 29.95 in 8.0 mi ESE 10.4 mph - 0.41 in Rain , Thunderstorm Light Thunderstorms and Rain
6:14 PM 73.0 °F - 69.1 °F 87% 29.96 in 2.5 mi South 16.1 mph 24.2 mph 0.00 in Rain , Thunderstorm Light Thunderstorms and Rain
6:18 PM 73.0 °F - 69.1 °F 87% 29.96 in 8.0 mi SSE 13.8 mph 24.2 mph 0.00 in Rain , Thunderstorm Light Thunderstorms and Rain
6:54 PM 75.0 °F - 68.0 °F 79% 29.87 in 10.0 mi SSE 18.4 mph 40.3 mph 0.01 in Thunderstorm Partly Cloudy
7:15 PM 73.9 °F - 66.9 °F 79% 29.90 in 10.0 mi West 18.4 mph 32.2 mph 0.00 in Rain , Thunderstorm Light Rain
7:29 PM 75.0 °F - 66.0 °F 73% 29.93 in 10.0 mi SW 15.0 mph 33.4 mph 0.00 in   Partly Cloudy
7:54 PM 73.9 °F - 66.0 °F 76% 29.91 in 10.0 mi WSW 6.9 mph - 0.00 in   Clear
8:54 PM 72.0 °F - 66.0 °F 81% 29.90 in 10.0 mi WSW 4.6 mph - N/A   Clear
9:54 PM 69.1 °F - 66.9 °F 93% 29.91 in 9.0 mi SSW 3.5 mph - N/A   Clear
10:54 PM 68.0 °F - 66.0 °F 93% 29.94 in 10.0 mi Calm Calm - N/A   Clear
11:54 PM 68.0 °F - 66.0 °F 93% 29.96 in 10.0 mi ENE 3.5 mph - N/A   Clear